When you browse on this site, cookies collect data to enhance your experience and personalize the content and advertising you see.
Visit our Privacy Policy to learn more. By continuing to use the site, you agree to this use of cookies and data.
  • In Österreich
  • Länderverzeichnis
  • Für 7 Tage
  • Wassertemperatur
  • Satellitenkarten
  • Wetterkarte
  • News
  • Widgets
  • user-avatar
    Anmelden

    Stündliche Wetter Chyzhevychi

    Heute, 19 Dezember, Mittwoch

    Zeit Temperatur Niederschläge Wind Luftdruck Luftfeuchtigkeit
    00:00 -7°C° 0 mm 1 m/S 748 mmHg 94%
    01:00 -7°C° 0 mm 1 m/S 748 mmHg 94%
    02:00 -7°C° 0 mm 1 m/S 748 mmHg 95%
    03:00 -7°C° 0 mm 1 m/S 748 mmHg 95%
    04:00 -9°C° 0 mm 2 m/S 748 mmHg 95%
    05:00 -9°C° 0 mm 2 m/S 748 mmHg 95%
    06:00 -9°C° 0 mm 2 m/S 748 mmHg 94%
    07:00 -8°C° 0 mm 2 m/S 748 mmHg 94%
    08:00 -9°C° 0 mm 2 m/S 748 mmHg 94%
    09:00 -8°C° 0 mm 2 m/S 748 mmHg 92%
    10:00 -7°C° 0 mm 2 m/S 748 mmHg 90%
    11:00 -7°C° 0 mm 3 m/S 748 mmHg 88%
    12:00 -7°C° 0 mm 3 m/S 747 mmHg 87%
    13:00 -6°C° 0 mm 3 m/S 747 mmHg 86%
    14:00 -5°C° 0 mm 3 m/S 747 mmHg 85%
    15:00 -6°C° 0 mm 3 m/S 746 mmHg 88%
    16:00 -7°C° 0 mm 3 m/S 746 mmHg 90%
    17:00 -7°C° 0 mm 3 m/S 746 mmHg 92%
    18:00 -7°C° 0 mm 3 m/S 746 mmHg 92%
    19:00 -8°C° 0 mm 3 m/S 746 mmHg 92%
    20:00 -9°C° 0 mm 4 m/S 746 mmHg 91%
    21:00 -8°C° 0 mm 3 m/S 746 mmHg 91%
    22:00 -8°C° 0 mm 3 m/S 745 mmHg 90%
    23:00 -8°C° 0 mm 3 m/S 745 mmHg 89%

    Morgen, 20 Dezember, Donnerstag

    Zeit Temperatur Niederschläge Wind Luftdruck Luftfeuchtigkeit
    00:00 -8°C° 0 mm 3 m/S 745 mmHg 88%
    01:00 -8°C° 0 mm 3 m/S 745 mmHg 87%
    02:00 -8°C° 0 mm 3 m/S 745 mmHg 87%
    03:00 -8°C° 0 mm 3 m/S 744 mmHg 86%
    04:00 -8°C° 0 mm 3 m/S 744 mmHg 86%
    05:00 -8°C° 0 mm 3 m/S 744 mmHg 86%
    06:00 -8°C° 0 mm 3 m/S 744 mmHg 85%
    07:00 -7°C° 0 mm 3 m/S 744 mmHg 85%
    08:00 -7°C° 0 mm 3 m/S 743 mmHg 85%
    09:00 -7°C° 0 mm 3 m/S 743 mmHg 84%
    10:00 -6°C° 0 mm 3 m/S 743 mmHg 83%
    11:00 -5°C° 0 mm 3 m/S 743 mmHg 82%
    12:00 -4°C° 0 mm 3 m/S 743 mmHg 82%
    13:00 -4°C° 0 mm 3 m/S 743 mmHg 82%
    14:00 -2°C° 0 mm 3 m/S 743 mmHg 82%
    15:00 -4°C° 0 mm 3 m/S 743 mmHg 84%
    16:00 -4°C° 0 mm 3 m/S 743 mmHg 85%
    17:00 -4°C° 0 mm 3 m/S 743 mmHg 86%
    18:00 -4°C° 0.2 mm 3 m/S 743 mmHg 88%
    19:00 -4°C° 0.2 mm 3 m/S 743 mmHg 89%
    20:00 -4°C° 0.2 mm 3 m/S 743 mmHg 91%
    21:00 -2°C° 0.3 mm 3 m/S 743 mmHg 91%
    22:00 -2°C° 0.3 mm 3 m/S 743 mmHg 91%
    23:00 -2°C° 0.3 mm 3 m/S 743 mmHg 92%

    übermorgen, 21 Dezember, Freitag

    Zeit Temperatur Niederschläge Wind Luftdruck Luftfeuchtigkeit
    00:00 -2°C° 0.1 mm 3 m/S 743 mmHg 91%
    01:00 -2°C° 0.1 mm 3 m/S 743 mmHg 90%
    02:00 -2°C° 0.1 mm 3 m/S 743 mmHg 89%
    03:00 -1°C° 0.1 mm 3 m/S 743 mmHg 88%
    04:00 -1°C° 0.1 mm 3 m/S 743 mmHg 88%
    05:00 -1°C° 0.1 mm 3 m/S 742 mmHg 87%
    06:00 -2°C° 0 mm 4 m/S 743 mmHg 87%
    07:00 -2°C° 0 mm 4 m/S 743 mmHg 87%
    08:00 -2°C° 0 mm 4 m/S 743 mmHg 86%
    09:00 -2°C° 0 mm 4 m/S 743 mmHg 86%
    10:00 -1°C° 0 mm 4 m/S 742 mmHg 85%
    11:00 -1°C° 0 mm 4 m/S 742 mmHg 84%
    12:00 0°C° 0 mm 5 m/S 742 mmHg 84%
    13:00 0°C° 0 mm 5 m/S 741 mmHg 85%
    14:00 0°C° 0 mm 5 m/S 741 mmHg 85%
    15:00 0°C° 0.3 mm 5 m/S 741 mmHg 85%
    16:00 0°C° 0.3 mm 5 m/S 740 mmHg 85%
    17:00 0°C° 0.3 mm 5 m/S 740 mmHg 84%
    18:00 0°C° 0.2 mm 5 m/S 739 mmHg 84%
    19:00 0°C° 0.2 mm 5 m/S 739 mmHg 83%
    20:00 0°C° 0.2 mm 5 m/S 738 mmHg 83%
    21:00 0°C° 0.4 mm 5 m/S 737 mmHg 83%
    22:00 -1°C° 0.4 mm 6 m/S 737 mmHg 83%
    23:00 -1°C° 0.4 mm 6 m/S 736 mmHg 83%

    22 Dezember, Samstag

    Zeit Temperatur Niederschläge Wind Luftdruck Luftfeuchtigkeit
    00:00 -1°C° 0.5 mm 7 m/S 735 mmHg 84%
    01:00 -1°C° 0.5 mm 7 m/S 734 mmHg 85%
    02:00 -1°C° 0.5 mm 7 m/S 733 mmHg 85%
    03:00 0°C° 0.7 mm 7 m/S 733 mmHg 85%
    04:00 0°C° 0.7 mm 7 m/S 733 mmHg 85%
    05:00 0°C° 0.7 mm 7 m/S 732 mmHg 85%
    06:00 0°C° 0.1 mm 7 m/S 732 mmHg 86%
    07:00 +2°C° 0.1 mm 7 m/S 732 mmHg 86%
    08:00 +2°C° 0.1 mm 7 m/S 733 mmHg 86%
    09:00 +2°C° 0.1 mm 7 m/S 733 mmHg 86%
    10:00 +2°C° 0.1 mm 7 m/S 733 mmHg 86%
    11:00 +3°C° 0.1 mm 7 m/S 733 mmHg 87%
    12:00 +3°C° 0.1 mm 7 m/S 732 mmHg 87%
    13:00 +3°C° 0.1 mm 6 m/S 732 mmHg 87%
    14:00 +3°C° 0.1 mm 6 m/S 732 mmHg 87%
    15:00 +3°C° 0.1 mm 6 m/S 731 mmHg 87%
    16:00 +2°C° 0.1 mm 6 m/S 731 mmHg 87%
    17:00 +2°C° 0.1 mm 6 m/S 731 mmHg 87%
    18:00 +2°C° 0.1 mm 6 m/S 731 mmHg 88%
    19:00 +2°C° 0.1 mm 6 m/S 731 mmHg 88%
    20:00 +3°C° 0.1 mm 6 m/S 731 mmHg 88%
    21:00 +3°C° 0.5 mm 6 m/S 731 mmHg 87%
    22:00 +3°C° 0.5 mm 7 m/S 731 mmHg 86%
    23:00 +3°C° 0.5 mm 7 m/S 731 mmHg 86%

    23 Dezember, Sonntag

    Zeit Temperatur Niederschläge Wind Luftdruck Luftfeuchtigkeit
    00:00 +3°C° 0.4 mm 7 m/S 731 mmHg 87%
    01:00 +3°C° 0.4 mm 7 m/S 731 mmHg 88%
    02:00 +2°C° 0.4 mm 7 m/S 731 mmHg 89%
    03:00 +2°C° 0.1 mm 7 m/S 732 mmHg 87%
    04:00 +1°C° 0.1 mm 8 m/S 732 mmHg 85%
    05:00 +1°C° 0.1 mm 8 m/S 732 mmHg 83%
    06:00 0°C° 0.2 mm 8 m/S 733 mmHg 84%
    07:00 0°C° 0.2 mm 9 m/S 733 mmHg 84%
    08:00 -1°C° 0.2 mm 9 m/S 734 mmHg 84%
    09:00 -1°C° 0.1 mm 8 m/S 735 mmHg 84%
    10:00 -1°C° 0.1 mm 7 m/S 736 mmHg 85%
    11:00 -1°C° 0.1 mm 7 m/S 737 mmHg 85%
    12:00 -1°C° 0.1 mm 6 m/S 737 mmHg 85%
    13:00 -1°C° 0.1 mm 6 m/S 738 mmHg 85%
    14:00 0°C° 0.1 mm 5 m/S 738 mmHg 85%
    15:00 0°C° 0 mm 4 m/S 739 mmHg 87%
    16:00 -1°C° 0 mm 4 m/S 739 mmHg 89%
    17:00 0°C° 0 mm 3 m/S 739 mmHg 90%
    18:00 0°C° 0 mm 3 m/S 739 mmHg 91%
    19:00 +1°C° 0 mm 2 m/S 740 mmHg 92%
    20:00 -1°C° 0 mm 2 m/S 740 mmHg 93%
    21:00 -1°C° 0.1 mm 2 m/S 740 mmHg 93%
    22:00 -1°C° 0.1 mm 2 m/S 740 mmHg 93%
    23:00 -1°C° 0.1 mm 2 m/S 740 mmHg 93%

    24 Dezember, Montag

    Zeit Temperatur Niederschläge Wind Luftdruck Luftfeuchtigkeit
    00:00 -1°C° 0.1 mm 2 m/S 740 mmHg 93%
    01:00 +1°C° 0.1 mm 2 m/S 740 mmHg 93%
    02:00 +1°C° 0.1 mm 2 m/S 740 mmHg 92%
    03:00 0°C° 0.2 mm 3 m/S 740 mmHg 92%
    04:00 0°C° 0.2 mm 3 m/S 740 mmHg 91%
    05:00 -1°C° 0.2 mm 4 m/S 739 mmHg 91%
    06:00 -1°C° 0.2 mm 4 m/S 739 mmHg 90%
    07:00 -1°C° 0.2 mm 4 m/S 739 mmHg 90%
    08:00 -1°C° 0.2 mm 4 m/S 739 mmHg 89%
    09:00 0°C° 0.4 mm 4 m/S 739 mmHg 89%
    10:00 0°C° 0.4 mm 5 m/S 739 mmHg 89%
    11:00 0°C° 0.4 mm 5 m/S 739 mmHg 89%
    12:00 0°C° 0.2 mm 5 m/S 739 mmHg 89%
    13:00 0°C° 0.2 mm 5 m/S 739 mmHg 89%
    14:00 +1°C° 0.2 mm 5 m/S 739 mmHg 88%
    15:00 0°C° 0.3 mm 5 m/S 739 mmHg 89%
    16:00 0°C° 0.3 mm 5 m/S 740 mmHg 90%
    17:00 0°C° 0.3 mm 4 m/S 740 mmHg 90%
    18:00 0°C° 0.2 mm 5 m/S 740 mmHg 91%
    19:00 0°C° 0.2 mm 5 m/S 741 mmHg 92%
    20:00 0°C° 0.2 mm 5 m/S 742 mmHg 93%
    21:00 -1°C° 0.2 mm 5 m/S 742 mmHg 93%
    22:00 -1°C° 0.2 mm 5 m/S 743 mmHg 92%
    23:00 -2°C° 0.2 mm 5 m/S 744 mmHg 91%
    Mehr zeigen